(494510) = 2016 XT9

Discovered at Mount Lemmon on 2011-12-26 by Mt. Lemmon Survey.

Orbit

Orbit type: Main Belt

Note: WebGL enabled browser required.

epoch2024-03-31.0
epoch JD2460400.5
perihelion date2021-09-29.72836
perihelion JD2459487.22837
argument of perihelion (°)98.45755
ascending node (°)284.96260
inclination (°)7.97886
eccentricity0.0862369
perihelion distance (AU)2.7602421
Tisserand w.r.t. Jupiter3.2
ΔV w.r.t. Earth (km/sec)10.6
semimajor axis (AU)3.0207414
mean anomaly (°)171.44851
mean daily motion (°/day)0.18773000
aphelion distance (AU)3.281
period (years)5.25
P-vector [x]0.90836416
P-vector [y]0.30778988
P-vector [z]0.28308999
Q-vector [x]-0.39609515
Q-vector [y]0.85035323
Q-vector [z]0.34642172
absolute magnitude16.63
phase slope0.15
uncertainty0
referenceE2024-G51
observations used154
oppositions11
arc length (days)6310
first opposition used2006
last opposition used2024
residual rms (arc-secs)0.82
perturbers coarse indicatorM-v
perturbers precise indicator003Ek
first observation date used2006-12-25.0
last observation date used2024-04-04.0
computer nameMPCLINUX
JD of orbit computation2457847.295697
perihelion JD uncertainty (days)1.8246E-03
argument of perihelion uncertainty (°)3.8872E-04
ascending node uncertainty (°)4.7332E-05
inclination uncertainty (°)4.4925E-06
eccentricity uncertainty 4.3597E-08
perihelion distance uncertainty (AU)1.3059E-07
Minimum Orbit Intersection Distances (in AU)
for orbit epoch: 2460400.5, reference: E2024-G51
Mercury2.42746
Venus2.05205
Earth1.77852
Mars1.31418
Jupiter2.14401
Saturn6.07605
Uranus15.2458
Neptune27.0834

Observations

147 total observations over interval: 2006 12 25.23029 – 2023 01 15.426814
These data are available for download (format description).

